sat.trackr.live / text

‹ back to catalog

BEIDOU-2 G5 (C05)

NORAD 38091 · 2012-008A

PAYLOAD ACTIVE UNKNOWN

§ Identity

Operator
Country
PRC
Launch date
2012-02-24
Launch site
XICLF
Launch vehicle
Mass (kg)
RCS (m²)
10.17

Purposes: comms, nav

External: N2YO · Heavens-Above · Gunter

§ Orbital elements

Epoch: 2026-05-25T04:01:23.155104Z

Period
1,436.05 min
Inclination
3.5190°
Eccentricity
0.0010782
Mean motion
1.00274790 rev/d
Perigee alt
35,740.3 km
Apogee alt
35,831.2 km
Semi-major
42,163.9 km
B*
0.0000e+0
RAAN
69.8371°
Arg perigee
271.4876°
Mean anomaly
20.4981°
Rev number
5,213

§ Raw data

BEIDOU-2 G5 (C05)1 38091U 12008A   26145.16762911  .00000055  00000+0  00000+0 0  99912 38091   3.5190  69.8371 0010782 271.4876  20.4981  1.00274790 52133

JSON: /api/v1/satellites/38091 · /tle

For live sub-satellite position, see the globe view (requires WebGL).

§ Visibility from observer

Set your observer location to see the next 7 days of passes ≥ 10°. The values pass through the URL so the page stays shareable.

No JS? Fill the form by hand. The geolocation button needs JavaScript.